GEFSCGP_con_probscp_246.txt.gz
Probability
0 0 0 0 0 0 0 0 0 0 1 1 1 0 1 4 10 15 19 20 18 15 15 19 23 23 19 15 14 15 15 12 11 9 8 7 5 4 3 4 4 5 6 6
0 0 0 0 0 0 0 0 0 0 1 1 0 0 0 3 8 14 18 20 19 17 17 20 24 25 24 22 19 18 16 15 14 12 10 9 6 4 3 4 5 6 7 7
0 0 0 0 0 0 0 0 0 0 1 1 1 0 0 1 5 10 14 18 21 20 19 20 23 26 29 31 28 23 20 18 17 16 14 12 8 4 3 4 6 8 9 9
0 0 0 0 0 0 0 0 0 0 1 2 2 1 1 1 3 7 11 16 20 21 20 19 22 27 31 34 33 29 25 21 19 18 18 16 10 6 4 4 6 9 10 10
0 0 0 0 0 0 0 0 0 0 1 3 3 3 2 1 2 5 10 15 19 21 20 19 22 27 30 33 33 32 30 27 23 21 21 19 15 9 6 5 6 7 8 9
0 0 0 0 0 0 0 0 0 0 1 2 2 2 2 2 3 7 11 16 19 21 20 19 22 27 31 32 32 31 32 31 28 24 22 20 18 14 9 5 4 5 6 7
0 0 0 0 0 0 0 1 0 0 1 1 1 1 1 2 4 8 14 18 21 22 21 20 22 29 34 35 32 31 33 33 30 27 23 19 17 14 11 6 4 4 6 6
0 0 0 0 0 0 0 0 0 0 0 0 0 0 1 2 4 9 15 20 22 22 22 22 24 29 34 35 33 33 34 34 33 31 25 19 14 12 10 8 6 5 5 6
0 0 0 0 0 0 0 0 0 0 0 0 0 1 1 2 5 11 16 20 21 20 22 24 25 27 30 31 31 33 34 34 35 34 27 19 14 12 12 11 8 5 4 4
0 0 0 0 0 0 0 0 0 0 0 0 0 1 1 2 7 14 18 19 20 21 22 24 25 26 28 27 27 29 31 32 34 34 29 20 15 15 15 13 10 6 4 4
0 0 0 0 0 0 0 0 0 0 0 0 0 0 1 2 7 15 19 21 24 25 24 25 27 28 29 28 26 27 29 30 33 34 31 23 19 19 18 15 12 9 7 6
0 0 0 0 0 0 0 0 0 0 0 0 0 0 1 3 7 13 21 25 27 27 25 25 28 29 31 29 27 29 31 31 32 34 31 27 24 22 20 17 15 13 11 10
0 0 0 0 0 0 0 0 0 0 0 0 0 0 3 7 9 14 22 26 28 27 24 25 27 29 30 30 29 31 33 33 34 35 34 29 26 23 20 18 17 16 15 15
0 0 0 0 0 0 0 0 0 0 0 0 0 0 3 8 12 17 23 28 30 29 26 26 27 28 30 30 32 33 34 35 37 38 37 32 27 22 19 17 17 17 17 17
0 0 0 0 0 0 0 0 0 0 0 0 0 1 3 8 14 20 26 29 31 31 30 30 30 29 29 30 33 35 36 38 39 41 40 36 29 24 19 17 17 17 17 16
0 0 0 0 0 0 0 0 0 0 0 0 1 2 6 12 18 24 27 28 28 28 29 33 33 30 28 29 32 35 38 40 41 43 43 39 33 26 21 18 18 18 18 17
0 0 0 0 0 0 0 0 0 0 0 0 1 4 8 15 22 25 26 26 26 26 29 32 34 32 31 32 33 36 40 43 44 44 42 40 35 28 22 19 19 19 18 17
0 0 0 0 0 0 0 0 0 1 1 2 4 6 11 16 20 22 25 26 27 29 32 33 35 38 39 39 39 39 42 45 46 44 41 38 34 28 22 20 20 20 18 17
0 0 0 0 0 0 1 1 2 2 3 5 8 10 13 16 18 20 23 26 29 32 34 35 39 44 45 44 44 44 44 46 47 45 41 37 32 28 25 23 22 21 19 18
0 0 0 0 0 0 1 3 3 3 4 8 12 13 15 17 18 19 21 26 33 35 35 36 41 47 47 45 46 48 47 45 44 43 40 35 31 28 26 25 24 23 24 23
0 0 0 0 0 0 2 4 4 3 4 9 15 17 16 18 20 21 24 31 38 38 36 37 42 48 49 48 49 48 45 42 41 39 35 32 29 27 26 26 27 28 28 28
0 0 0 0 1 1 2 4 5 5 7 12 18 20 20 23 25 27 31 36 41 41 40 42 45 48 49 51 50 47 42 40 41 39 34 30 27 26 26 27 29 31 30 29
1 1 1 1 2 3 3 5 7 9 13 18 21 25 29 31 32 33 36 39 41 42 44 47 48 47 47 49 49 46 41 41 43 42 36 30 27 26 25 26 28 29 28 27
3 3 3 3 4 6 7 8 11 15 20 25 28 33 37 39 37 37 39 41 41 41 44 48 48 47 46 48 48 46 42 42 43 42 38 32 28 26 24 23 24 24 24 24
7 6 6 6 7 9 11 13 16 20 26 32 36 40 43 43 42 41 40 40 40 41 42 45 46 45 45 45 46 45 44 43 42 40 38 35 32 27 23 21 19 18 19 20
9 9 8 7 7 9 13 16 19 24 30 35 40 44 45 45 44 44 42 38 38 40 41 43 44 43 43 42 42 42 43 44 41 38 37 38 35 29 24 20 16 14 15 16

GEFSCGP_con_probscp_252.txt.gz
Probability
0 0 0 0 0 0 0 0 0 0 0 0 0 0 1 2 2 3 4 4 5 5 4 3 2 3 6 7 6 6 4 2 1 2 2 1 0 0 1 1 1 0 0 0
0 0 0 0 0 0 0 0 0 0 0 0 0 0 0 1 1 3 4 5 6 5 4 3 3 4 6 7 6 5 3 1 1 1 2 1 0 1 1 1 0 0 0 0
0 0 0 0 0 0 0 0 0 0 0 0 0 0 0 0 1 2 4 6 6 5 4 3 5 7 8 7 6 5 2 1 1 2 2 2 2 2 1 0 0 0 0 0
0 0 0 0 0 0 0 0 0 0 0 0 0 0 0 0 1 2 4 5 6 5 4 4 7 10 10 8 7 5 3 2 2 2 3 3 2 2 1 0 0 0 0 0
0 0 0 0 0 0 0 0 0 0 0 0 0 0 0 0 0 1 3 5 6 6 5 5 9 12 13 11 8 6 5 3 2 2 2 2 2 1 0 0 0 0 0 0
0 0 0 0 0 0 0 0 0 0 0 0 0 0 0 0 0 1 2 4 7 8 7 7 10 14 14 11 9 7 6 5 3 1 1 2 2 1 0 0 0 0 0 0
0 0 0 0 0 0 0 0 0 0 0 0 0 0 0 0 0 0 1 3 7 8 8 8 11 14 14 11 9 7 6 5 3 2 2 3 2 2 1 0 0 0 0 0
0 0 0 0 0 0 0 0 0 0 0 0 0 0 0 0 1 1 1 2 6 8 8 8 11 14 14 12 9 7 5 5 4 4 4 4 3 3 2 1 1 0 0 0
0 0 0 0 0 0 0 0 0 0 0 0 0 0 0 1 2 3 2 2 5 7 9 10 13 14 14 11 8 6 4 5 5 5 5 4 4 5 4 2 1 1 0 0
0 0 0 0 0 0 0 0 0 0 0 0 0 0 1 3 4 3 2 2 3 5 9 12 14 14 13 10 7 5 5 6 6 6 5 4 5 6 6 4 2 2 1 1
0 0 0 0 0 0 0 0 0 0 0 0 0 0 1 3 4 2 1 1 2 5 9 12 14 13 12 9 6 5 5 7 7 6 5 4 4 6 7 6 5 4 3 2
0 0 0 0 0 0 0 0 0 0 0 0 0 0 1 3 4 2 1 1 3 7 13 14 13 12 10 9 7 5 5 6 7 7 6 4 5 7 9 9 8 7 6 5
0 0 0 0 0 0 0 0 0 0 0 0 0 0 2 4 4 3 3 3 6 12 17 16 12 10 10 9 9 7 5 5 7 8 8 7 7 8 9 10 10 10 9 8
0 0 0 0 0 0 0 0 0 0 0 0 0 0 1 4 5 4 5 6 9 15 17 15 12 10 10 12 12 8 6 7 8 9 10 12 11 9 9 9 10 9 9 9
0 0 0 0 0 0 0 0 0 0 0 0 0 0 0 2 5 7 8 9 11 15 16 13 11 10 10 13 14 11 8 9 11 12 14 16 15 12 9 9 8 7 7 7
0 0 0 0 0 0 0 0 0 0 0 0 0 0 0 3 7 10 11 10 12 14 14 11 8 8 8 12 15 14 11 11 13 15 17 18 16 13 13 12 10 8 8 8
0 0 0 0 0 0 0 0 0 0 0 0 1 1 2 5 8 10 11 12 12 12 12 9 6 5 7 10 14 15 13 14 16 18 19 18 15 14 15 16 14 12 11 11
0 0 0 0 0 0 0 0 0 0 0 1 2 3 3 6 8 9 10 11 10 10 9 7 4 5 9 13 16 16 15 17 19 20 20 20 18 16 17 18 17 15 14 13
0 0 0 0 0 0 0 0 0 0 1 3 4 4 5 7 8 9 9 10 10 11 10 7 5 8 14 19 21 22 21 21 20 20 22 23 22 20 19 19 18 16 14 14
0 0 0 0 0 0 0 0 0 0 2 3 5 6 7 9 9 9 10 12 13 14 14 13 13 16 21 24 26 28 26 22 19 19 21 23 23 22 20 19 17 15 14 14
0 0 0 0 0 0 0 0 0 0 1 3 5 8 10 10 10 11 12 15 18 18 18 19 20 22 24 27 28 28 24 18 16 18 20 22 24 23 20 17 16 15 13 13
0 0 0 0 0 0 0 1 1 1 2 5 7 10 12 11 11 12 13 16 20 20 19 20 22 22 23 24 25 24 19 14 14 16 18 20 23 23 20 16 15 15 13 12
0 0 0 0 1 1 2 3 3 4 7 9 11 12 13 12 12 12 13 15 20 22 21 21 21 21 20 20 21 21 18 17 16 16 17 19 21 21 19 15 15 15 15 14
1 1 0 1 3 5 7 8 7 8 11 13 13 14 14 13 13 14 14 16 21 25 25 23 22 21 19 19 21 22 23 23 21 19 19 18 18 18 17 15 14 15 17 18
3 2 1 2 4 7 9 10 10 11 13 14 14 15 15 14 16 16 17 20 24 25 23 21 21 21 21 21 23 25 26 26 24 22 20 17 16 17 17 16 15 16 17 18
4 4 3 3 5 7 9 10 11 12 13 13 14 14 14 15 17 19 21 23 24 23 19 16 18 22 24 23 23 26 27 26 24 22 19 16 16 18 19 17 16 16 16 15

GEFSCGP_con_probscp_258.txt.gz
Probability
0 0 0 0 0 0 0 0 0 0 0 0 0 0 0 0 1 2 2 1 0 0 1 3 4 5 9 12 12 11 11 11 12 11 10 8 5 4 2 1 0 0 0 0
0 0 0 0 0 0 0 0 0 0 0 0 0 0 0 0 0 1 1 1 0 0 2 5 6 6 9 12 12 11 11 11 11 12 11 8 6 4 2 1 0 0 1 1
0 0 0 0 0 0 0 0 0 0 1 0 0 0 1 1 1 1 1 1 1 1 3 7 9 9 10 11 11 11 12 11 10 11 10 9 7 5 2 0 0 1 2 2
0 0 0 0 0 0 0 0 0 0 0 0 0 0 1 2 2 2 2 2 2 3 5 8 10 10 10 10 10 11 12 11 10 11 11 10 8 6 2 0 0 1 3 3
0 0 0 0 0 0 0 0 0 0 0 0 0 0 1 3 3 3 4 3 3 4 6 8 9 9 9 11 11 11 12 12 11 12 13 12 9 6 2 1 1 3 4 4
1 1 1 0 0 0 0 0 0 0 0 0 0 0 1 3 3 4 5 5 4 4 6 8 9 9 11 13 13 12 13 12 12 12 12 11 8 6 4 3 4 5 5 3
2 2 2 1 0 0 0 0 1 0 0 0 0 1 2 3 4 5 6 5 5 6 7 9 10 13 14 16 16 15 14 13 12 11 10 9 7 6 6 6 6 6 4 2
2 2 2 1 0 0 0 0 0 0 0 0 1 2 3 3 4 5 5 5 7 8 10 12 14 15 15 15 16 16 15 13 12 12 11 10 9 7 8 9 9 7 4 2
1 1 1 0 0 0 0 0 0 0 0 0 1 3 4 4 5 6 6 7 9 11 13 15 17 17 16 14 14 14 14 14 14 14 13 13 12 11 11 12 13 9 6 4
0 0 0 0 0 0 0 0 0 0 0 0 1 3 4 5 6 7 7 8 10 13 16 18 18 19 17 14 13 12 14 16 17 16 16 16 17 17 14 14 15 12 8 6
0 0 0 0 0 0 0 0 0 0 0 0 1 3 5 6 6 7 7 8 9 12 16 17 17 17 16 13 12 14 16 18 18 18 19 20 21 21 18 15 15 13 11 10
0 0 0 0 0 0 0 0 0 0 0 0 1 3 5 6 6 6 6 6 8 12 16 16 15 16 15 12 12 15 17 18 17 17 20 22 24 23 22 20 18 16 15 13
0 0 0 0 0 0 0 0 0 0 0 0 1 3 4 4 4 4 4 5 9 15 19 18 18 19 19 16 14 15 17 18 17 17 19 22 24 25 25 25 22 19 16 14
0 0 0 0 0 0 0 0 0 0 0 0 1 2 4 4 3 2 2 6 13 19 21 21 23 26 27 26 22 20 20 21 22 23 24 25 26 27 26 26 24 21 18 16
1 0 0 0 0 0 0 0 0 0 0 0 1 2 4 4 3 3 4 8 14 20 22 23 27 30 33 34 33 28 27 28 29 30 30 29 29 31 30 27 25 23 21 20
2 1 0 0 0 0 0 0 0 0 0 0 1 2 3 4 5 6 9 13 17 20 22 25 29 32 35 38 39 37 36 36 35 36 34 32 31 32 32 30 28 27 26 25
2 1 0 0 0 0 0 0 0 0 0 0 0 1 3 5 6 10 14 18 21 23 25 28 30 33 36 38 40 42 44 43 41 40 38 35 32 32 33 34 33 33 33 33
1 1 1 0 0 0 0 0 0 0 0 1 1 3 6 8 9 12 17 21 25 28 30 33 33 35 38 38 39 44 47 47 45 44 42 38 36 35 37 38 37 37 38 40
1 2 1 0 0 0 0 0 0 0 1 3 5 7 10 10 11 16 23 28 32 33 34 36 37 40 44 43 44 48 49 47 46 45 42 38 37 39 40 40 39 39 40 41
1 1 1 0 0 0 0 0 0 1 3 5 7 9 11 12 14 22 30 34 37 38 37 37 41 46 51 51 51 53 53 52 50 46 41 38 39 40 41 42 41 39 39 39
0 0 0 0 0 0 0 0 1 3 5 6 7 9 11 13 17 24 31 36 39 41 40 38 43 50 54 55 54 55 57 57 55 50 44 41 40 41 42 43 43 41 39 37
0 0 0 0 0 1 2 3 5 9 10 9 8 10 12 14 18 24 31 36 40 44 42 41 46 53 56 54 52 55 57 57 54 51 47 42 41 42 43 42 42 40 37 35
0 0 0 1 3 6 8 9 11 14 14 13 12 12 13 15 18 25 34 41 46 48 47 45 48 54 57 54 51 53 54 53 51 51 48 42 39 40 41 39 36 33 31 29
1 2 3 5 8 11 13 14 15 16 16 16 15 14 14 16 20 26 37 46 51 52 50 47 46 51 55 54 51 50 52 52 52 51 48 41 35 34 35 34 29 25 24 24
3 5 7 10 14 16 17 17 17 16 17 17 15 15 15 17 21 27 36 46 50 50 50 47 44 46 51 53 51 49 50 53 54 52 47 40 33 28 27 26 22 18 19 19
5 6 9 14 17 18 19 19 18 17 17 17 15 14 15 16 21 28 36 43 48 48 49 47 44 43 48 52 51 47 48 52 53 50 45 38 32 27 23 20 16 13 14 15

GEFSCGP_con_probscp_264.txt.gz
Probability
0 0 0 0 0 0 0 0 0 0 0 0 0 2 2 2 4 5 7 12 14 13 13 15 14 10 10 15 19 21 20 19 21 23 24 21 16 12 9 9 10 11 11 9
0 0 0 0 0 0 0 0 0 0 0 0 0 2 3 3 4 7 9 12 15 16 16 18 19 15 13 16 18 20 20 19 20 23 23 20 16 11 8 8 12 13 12 11
0 0 0 0 0 0 0 0 0 0 0 0 0 2 5 4 4 7 9 11 14 17 19 20 21 19 18 19 20 21 22 21 21 21 21 19 16 11 8 11 16 17 13 11
0 0 0 0 0 0 0 0 0 0 0 0 0 2 5 6 6 7 9 10 12 17 21 21 22 23 24 23 24 26 27 26 23 22 21 19 16 11 11 16 21 21 15 11
0 0 0 0 0 0 0 0 0 1 1 1 0 1 4 7 8 9 10 11 12 16 20 22 25 29 28 24 26 33 35 31 27 25 23 21 17 14 14 19 24 24 18 13
0 0 0 0 0 0 0 0 1 2 2 1 1 1 4 7 9 10 11 11 12 14 19 24 30 34 29 24 26 35 42 40 33 28 25 24 23 21 19 21 23 22 20 17
0 0 0 0 0 0 0 0 1 1 1 1 1 3 6 8 9 10 11 12 12 13 19 25 32 35 30 26 28 38 48 47 39 31 28 28 27 25 24 24 24 22 20 20
0 0 0 0 0 0 0 0 0 0 0 0 1 4 6 8 9 8 10 13 13 14 19 25 31 33 31 29 32 42 52 52 43 35 33 31 28 25 25 26 25 23 21 20
0 0 0 0 0 0 0 0 0 0 0 0 1 4 7 7 8 7 9 12 14 16 19 23 27 29 28 30 36 45 54 55 47 40 36 35 31 27 25 24 24 24 23 21
0 0 0 0 0 0 0 0 0 0 0 0 2 5 7 8 8 9 9 11 16 20 21 21 22 24 25 29 36 42 50 54 48 41 36 34 34 31 26 23 23 26 26 25
0 0 0 0 0 0 0 0 0 0 1 0 2 5 8 9 11 10 9 11 18 23 24 22 20 22 25 29 33 38 44 47 45 39 32 30 33 33 30 28 27 28 30 30
0 0 0 0 0 0 0 0 0 0 0 0 1 5 9 11 11 10 8 10 17 24 27 26 25 27 30 32 35 39 41 42 39 36 30 28 31 33 33 33 33 32 33 34
0 1 1 1 0 0 0 0 0 0 0 0 1 5 9 11 10 7 6 8 14 22 28 31 33 36 39 41 42 43 43 40 38 34 30 30 32 34 35 36 37 37 36 36
1 1 1 1 0 0 0 0 0 0 0 0 1 5 9 10 9 6 6 7 12 21 29 36 43 47 49 50 50 49 46 42 39 37 34 36 39 40 39 41 42 40 38 38
1 1 0 0 0 0 0 0 0 0 0 0 2 5 8 9 10 10 9 10 15 23 31 40 50 55 56 56 54 52 49 46 44 42 41 42 46 48 47 47 46 44 41 40
1 1 0 0 0 0 0 0 0 0 0 1 3 6 7 7 11 15 15 15 21 27 33 43 53 59 59 57 54 52 50 49 49 48 45 45 50 53 52 49 48 47 45 44
2 3 2 0 0 0 0 0 0 0 0 1 5 8 8 7 10 16 20 22 26 30 35 44 53 58 59 56 52 50 50 51 52 50 47 48 52 55 52 47 48 50 50 49
4 5 3 1 1 0 0 0 0 1 2 3 7 10 10 9 13 19 26 30 33 35 37 43 50 54 56 55 52 50 50 52 53 52 51 52 56 57 55 52 52 55 55 54
3 4 4 3 2 1 0 0 1 4 6 7 10 12 11 13 17 24 30 37 41 41 41 44 47 49 52 53 51 51 51 52 53 53 54 55 57 58 59 59 59 57 55 53
3 3 4 4 3 1 0 0 2 6 10 13 15 18 18 19 23 26 32 38 43 44 43 45 46 49 52 53 51 51 52 53 54 54 56 57 57 57 58 59 58 55 52 49
3 3 4 4 3 1 0 1 5 13 20 22 22 23 24 25 25 27 32 40 46 45 43 46 51 55 56 54 52 52 53 54 54 56 58 57 55 53 53 54 54 51 48 47
4 4 5 5 6 6 5 7 15 27 33 30 25 23 22 22 24 28 36 46 52 50 48 52 59 61 58 55 53 55 57 57 56 58 60 58 55 51 49 49 49 47 45 43
4 5 7 9 10 11 11 14 22 30 32 28 24 21 19 20 23 31 41 52 57 57 57 60 62 62 58 55 55 56 59 60 60 60 61 60 58 52 48 47 45 44 41 38
4 6 11 14 13 11 12 15 18 21 21 21 20 20 20 23 27 34 44 52 57 59 60 63 63 62 60 58 56 56 59 61 62 60 60 60 56 50 46 45 43 41 39 36
4 7 12 17 17 14 14 14 14 15 17 19 21 21 22 24 28 35 44 49 52 54 57 61 64 64 63 62 59 57 59 62 62 59 57 53 48 44 42 41 39 36 33 31
3 6 12 18 22 20 18 16 15 15 17 21 23 24 24 24 26 35 43 47 48 50 54 58 62 64 64 63 61 59 60 63 62 59 55 48 41 40 40 39 36 31 26 23

GEFSCGP_con_probscp_270.txt.gz
Probability
0 0 0 0 0 0 0 0 0 0 1 2 2 1 0 0 0 1 0 0 1 2 3 3 5 8 9 10 11 10 8 9 10 8 5 3 2 3 2 1 0 0 0 0
0 0 0 0 0 0 0 0 0 0 1 3 2 1 0 0 1 1 1 1 2 3 4 5 7 10 12 12 11 10 9 8 7 6 4 3 3 2 2 1 0 0 0 0
0 0 0 0 0 0 0 0 0 0 1 2 2 1 1 1 1 2 2 2 2 4 6 8 11 14 16 16 13 10 9 7 5 4 3 3 3 3 2 1 0 1 1 1
0 0 0 0 0 0 0 0 0 0 1 1 2 2 2 2 2 3 3 2 3 5 8 11 14 17 20 19 14 11 10 8 5 4 4 4 3 3 2 1 1 2 2 1
0 0 0 0 0 0 0 0 0 0 0 0 1 2 3 2 3 5 5 3 4 6 11 15 16 18 19 18 13 11 12 11 8 7 6 5 4 3 1 1 2 3 2 1
0 0 0 0 0 0 0 0 0 0 0 0 0 1 2 3 4 5 6 5 6 8 13 17 18 17 17 17 15 14 14 13 10 9 8 6 4 3 1 2 3 4 2 1
0 0 0 0 0 0 0 0 0 0 0 0 0 0 2 4 5 5 6 7 8 9 12 17 19 18 17 18 19 18 17 15 13 11 10 7 5 3 2 3 4 5 4 3
0 0 0 0 1 1 1 0 0 0 0 0 0 1 2 3 4 6 7 8 9 9 11 15 18 18 18 19 20 20 19 18 16 14 10 7 5 3 2 2 4 5 5 5
0 0 0 0 1 2 2 1 0 0 0 0 0 1 1 1 3 6 7 9 10 10 12 14 16 18 19 19 21 22 22 20 19 16 11 7 5 3 2 3 4 5 5 6
0 0 0 0 2 3 2 1 0 0 0 0 0 1 0 1 3 5 7 10 13 13 13 14 15 17 18 19 22 23 22 20 19 16 12 10 7 5 4 5 7 6 7 8
0 0 0 0 1 2 2 1 0 0 0 0 1 1 1 1 3 5 8 11 12 13 14 14 16 16 16 18 20 21 21 21 20 18 15 14 12 10 8 9 11 11 11 11
0 0 0 0 0 1 1 0 0 0 0 0 1 2 1 2 3 5 8 10 11 13 14 14 16 18 17 17 18 21 23 23 23 21 19 17 16 15 14 13 14 15 15 14
0 0 0 0 0 0 0 0 0 0 0 1 2 2 2 3 3 4 8 10 12 14 14 13 17 21 20 19 19 22 26 27 26 24 21 18 17 18 18 18 18 17 17 17
0 0 0 0 0 0 0 0 0 0 1 2 3 1 1 3 2 3 7 12 15 19 18 16 18 22 22 20 19 23 29 31 29 27 23 20 18 18 19 20 20 18 18 19
0 0 0 0 0 0 0 0 0 1 1 3 3 1 1 3 4 5 8 13 19 23 24 23 23 25 25 23 21 24 31 34 32 29 24 20 18 17 18 19 18 17 19 20
0 0 0 0 0 0 0 0 1 2 3 3 2 1 3 6 9 10 11 14 20 27 30 32 32 33 32 30 26 27 31 34 34 30 24 18 17 18 17 16 15 16 18 18
0 0 0 0 0 0 1 1 1 3 4 4 2 3 6 11 15 16 15 16 22 29 35 37 37 38 36 33 31 29 30 31 32 30 25 20 19 19 18 15 14 16 18 18
0 0 0 0 1 1 1 0 1 3 4 5 5 8 13 17 20 21 19 19 23 30 34 36 37 36 33 32 31 30 28 26 27 27 26 25 23 22 21 18 18 19 19 19
0 0 0 0 1 1 0 0 1 3 4 6 10 13 16 20 24 24 22 21 23 26 28 30 32 33 31 30 31 30 26 23 22 24 26 28 27 26 27 25 22 20 18 17
0 0 0 0 0 0 0 0 1 2 4 7 11 13 15 18 23 23 20 20 22 22 22 24 27 30 29 28 30 30 26 22 20 22 25 27 27 27 29 28 24 20 18 17
0 0 0 0 0 0 0 0 0 1 2 5 8 10 12 14 17 19 19 19 21 21 20 21 24 26 26 28 30 30 27 24 22 24 25 24 23 23 24 26 25 22 20 19
0 0 0 0 0 0 1 1 0 1 2 5 9 10 11 12 15 16 18 18 19 21 21 21 22 23 26 29 32 31 29 27 27 29 27 23 20 19 19 21 23 23 22 20
1 0 0 1 1 1 2 2 2 2 4 8 12 12 12 13 14 13 13 14 17 21 22 21 23 25 25 27 31 32 31 32 32 31 27 22 20 18 16 17 19 21 21 20
2 1 1 2 3 3 3 4 4 4 6 8 11 12 13 14 14 12 12 13 16 21 23 24 26 26 24 25 28 31 33 35 35 31 26 23 21 19 16 14 15 16 18 19
3 1 1 4 5 5 5 6 7 8 9 9 10 11 13 16 17 17 17 18 21 24 27 29 30 28 27 28 30 32 34 36 35 31 26 23 23 21 18 15 14 14 14 15
4 1 2 5 6 6 7 8 9 10 11 12 12 12 13 17 19 20 20 22 25 27 31 34 33 32 32 32 33 34 35 35 34 30 26 24 23 23 20 18 16 12 10 11

GEFSCGP_con_probscp_276.txt.gz
Probability
0 0 0 0 0 0 0 0 0 0 0 0 0 0 0 0 0 0 0 0 0 0 0 0 0 1 3 2 1 0 0 1 2 3 3 3 2 1 1 2 2 1 0 1
0 0 0 0 0 0 0 0 0 0 0 0 0 0 0 0 0 0 0 0 0 0 0 0 1 2 3 3 2 1 0 0 1 2 2 2 1 1 2 3 2 1 1 1
0 0 0 0 0 0 0 0 0 0 0 0 0 0 0 0 0 0 1 1 1 0 0 2 3 3 3 4 4 2 1 0 0 1 1 1 1 2 3 3 3 2 2 2
0 0 0 0 0 0 0 0 0 0 0 0 0 0 1 1 1 1 1 2 2 1 1 4 5 3 2 3 3 2 1 1 1 1 2 2 3 3 3 3 3 2 2 2
0 0 0 0 0 0 0 0 0 0 0 0 0 0 1 2 1 1 1 3 3 2 3 4 4 2 1 3 3 3 2 1 1 2 3 3 3 3 3 3 2 2 2 1
0 0 0 0 0 0 0 0 0 0 0 0 0 0 0 1 1 0 1 2 3 4 4 3 2 1 1 3 5 4 3 1 0 1 2 2 2 2 2 1 1 2 1 0
0 0 0 0 0 0 0 0 0 0 0 0 0 1 0 0 0 0 1 2 3 5 4 2 0 1 2 4 6 6 4 2 1 0 1 1 1 1 1 0 0 0 0 0
0 0 0 0 0 0 0 0 0 0 0 0 0 0 0 0 0 0 0 1 2 3 2 1 1 3 5 5 7 8 6 4 3 1 0 0 0 0 0 0 0 0 0 0
0 0 0 0 0 0 0 0 0 0 0 0 0 0 0 0 0 0 0 0 1 1 1 1 3 5 7 7 7 9 8 6 5 3 1 1 1 0 0 0 0 1 1 1
0 0 0 0 0 0 0 0 0 0 0 0 0 0 0 0 0 0 0 0 0 0 0 2 4 7 9 9 9 10 9 8 6 5 3 3 2 1 0 0 1 2 2 2
0 0 0 0 0 0 0 0 0 0 0 0 0 0 0 0 0 0 0 0 0 0 0 2 4 7 9 10 9 8 7 7 8 7 6 5 3 1 0 0 1 3 3 3
0 0 0 0 0 0 0 0 0 0 0 0 0 0 0 0 0 0 0 1 2 1 1 2 4 6 9 10 8 6 5 7 9 9 8 8 6 3 1 1 2 3 3 3
0 0 0 0 0 0 0 0 0 0 0 0 0 0 0 0 0 0 1 2 3 2 2 3 4 7 10 10 9 7 5 7 8 8 9 10 8 5 2 2 3 4 4 5
0 0 0 0 0 0 0 0 0 0 0 0 0 0 0 0 0 0 1 2 3 3 3 4 5 7 9 9 8 7 6 7 9 9 10 11 9 7 5 4 4 4 5 6
0 0 0 0 0 0 0 0 0 0 0 0 0 0 0 0 0 0 1 3 4 5 5 5 5 6 7 6 5 5 5 8 11 12 12 11 9 8 7 6 4 4 4 5
0 0 0 0 0 0 1 1 1 0 0 0 0 0 0 1 1 0 2 5 7 8 8 6 6 6 6 4 3 3 5 8 12 13 12 9 8 8 8 6 5 4 4 5
0 0 0 0 0 0 1 2 1 0 0 0 0 0 2 3 3 2 4 8 11 11 10 8 7 8 8 6 4 5 7 9 12 13 11 9 8 9 9 7 6 6 6 7
0 0 0 0 0 0 0 1 1 0 0 0 0 2 4 5 5 5 6 9 11 11 10 10 9 10 11 8 7 8 11 13 14 14 12 10 9 10 10 8 7 8 8 8
0 0 0 0 0 0 0 0 0 0 0 0 2 5 7 6 6 6 6 7 10 11 11 10 10 11 12 11 10 12 15 16 16 15 13 11 10 10 10 9 8 9 10 10
0 0 0 0 0 0 0 0 0 0 0 2 5 7 7 5 4 5 6 7 9 10 10 10 9 10 11 11 12 13 15 16 17 16 14 11 9 10 9 9 8 9 10 10
0 0 0 0 0 0 0 0 0 0 1 3 7 8 6 4 3 5 7 8 7 7 8 10 10 10 10 11 13 14 15 16 18 18 15 11 10 9 9 8 8 9 9 9
0 0 0 0 0 0 0 0 0 0 1 4 8 7 5 5 5 5 7 8 8 8 9 11 12 12 12 13 14 16 16 16 18 18 15 12 11 10 9 8 8 9 8 8
0 0 0 0 0 0 0 0 1 1 2 4 6 7 7 7 6 6 7 9 11 11 12 13 14 15 16 16 16 16 15 16 17 16 14 12 11 9 9 9 9 9 9 9
0 0 0 0 0 0 1 2 3 5 5 5 5 6 6 5 5 7 9 12 13 13 13 14 16 18 19 17 15 14 16 17 17 15 13 12 10 8 8 9 10 9 10 10
0 0 0 0 0 1 2 4 6 9 9 7 5 5 5 4 4 7 11 13 13 12 13 14 17 19 18 15 13 15 18 20 20 16 13 11 9 8 8 8 9 8 8 9
0 0 0 0 0 1 3 6 8 10 9 7 5 5 5 4 5 6 9 12 12 12 11 13 18 20 18 14 12 16 20 22 23 20 15 12 9 8 7 8 8 6 6 8